Voltar ao catálogo

STARLINK-32533

AtivoComunicaçõesVLEO
NORAD 61706·PAYLOAD·🇺🇸 United States

Lançado Oct 30, 2024 de Vandenberg Space Force Base

Loading…

Próximas Passagens (próximas 24 horas)

TLE

AtualizadoSource: CelesTrak SupGP

Época: Sep 14, 2026, 21:10 UTC

1 61706C 24195V   26257.88243056 -.00006566  00000+0 -19405-3 0  2572
2 61706  53.1589 351.9514 0001187  87.9050 247.6525 15.34384066    19

Acompanhe STARLINK-32533 em tempo real com AllMySat

Download on the App Store